Weather History for Plattsmouth, NE

Change the Weather History Date:

Thursday, December 27, 2012

  Actual Average (KOFF) Record (KOFF)
Temperature  
Mean Temperature 18 °F -  
Max Temperature 25 °F 33 °F 60 °F (2013)
Min Temperature 10 °F 15 °F 1 °F (2000)
Degree Days  
Heating Degree Days 48    
Moisture  
Dew Point 17 °F    
Average Humidity 85    
Maximum Humidity 90    
Minimum Humidity 79    
Precipitation  
Precipitation 0.00 in - - ()
Sea Level Pressure  
Sea Level Pressure 30.03 in    
Wind  
Wind Speed 7 mph (East)    
Max Wind Speed 16 mph    
Max Gust Speed 16 mph    
Visibility 9 miles    
Events Snow    
Averages and records for this station are not official NWS values.
T = Trace of Precipitation, MM = Missing Value Source: NWS Daily Summary

Daily Weather History Graph

Daily Weather History Graph

Search for Another Location

Airport:

Trip Planner

Search our weather history database for the weather conditions in past years. The results will help you decide how hot, cold, wet, or windy it might be!

Date:

Astronomy

Dec. 27, 2012 Rise Set
Actual Time 7:47 AM CST 5:02 PM CST
Civil Twilight 7:16 AM CST 5:33 PM CST
Nautical Twilight 6:41 AM CST 6:08 PM CST
Astronomical Twilight 6:08 AM CST 6:41 PM CST
Moon 4:47 PM CST (12/27) 6:59 AM CST (12/27)
Length of Visible Light 10h 17m
Length of Day
9h 15m
Full, 100% of the Moon is Illuminated
Dec 27
Full
Dec 28
Full
Jan 4
Last Quarter
Jan 11
New
Jan 18
First Quarter

Hourly Weather History & Observations

Time (CST) Temp. Windchill Dew Point Humidity Pressure Visibility Wind Dir Wind Speed Gust Speed Precip Events Conditions
12:15 AM 11.3 °F 3.3 °F 8.1 °F 87% 30.14 in 10.0 mi East 4.6 mph - N/A   Clear
12:35 AM 11.3 °F 1.9 °F 7.9 °F 86% 30.13 in 10.0 mi East 5.8 mph - N/A   Clear
12:55 AM 11.1 °F 0.4 °F 7.9 °F 87% 30.12 in 10.0 mi East 6.9 mph - N/A   Clear
1:15 AM 11.3 °F 1.9 °F 8.2 °F 87% 30.12 in 10.0 mi East 5.8 mph - N/A   Clear
1:35 AM 11.1 °F 1.7 °F 8.2 °F 88% 30.12 in 10.0 mi East 5.8 mph - N/A   Clear
1:55 AM 10.9 °F 1.4 °F 7.7 °F 87% 30.12 in 10.0 mi East 5.8 mph - N/A   Clear
2:15 AM 10.4 °F 2.2 °F 7.7 °F 89% 30.13 in 10.0 mi East 4.6 mph - N/A   Clear
2:35 AM 10.9 °F 1.4 °F 8.2 °F 89% 30.12 in 10.0 mi East 5.8 mph - N/A   Mostly Cloudy
2:55 AM 12.4 °F 3.1 °F 9.5 °F 88% 30.12 in 10.0 mi ESE 5.8 mph - N/A   Overcast
3:15 AM 13.5 °F 3.3 °F 10.4 °F 88% 30.12 in 10.0 mi East 6.9 mph - N/A   Overcast
3:55 AM 14.7 °F 5.9 °F 11.3 °F 86% 30.11 in 10.0 mi East 5.8 mph - N/A   Overcast
4:15 AM 14.9 °F 7.5 °F 11.7 °F 87% 30.11 in 10.0 mi ESE 4.6 mph - N/A   Overcast
4:35 AM 15.6 °F 10.0 °F 12.2 °F 86% 30.10 in 10.0 mi East 3.5 mph - N/A   Overcast
4:55 AM 16.3 °F - 12.7 °F 86% 30.11 in 10.0 mi Calm Calm - N/A   Overcast
5:15 AM 16.7 °F 8.3 °F 13.1 °F 86% 30.09 in 10.0 mi East 5.8 mph - N/A   Overcast
5:35 AM 17.4 °F 9.1 °F 13.6 °F 85% 30.08 in 10.0 mi ESE 5.8 mph - N/A   Overcast
5:55 AM 18.3 °F 9.1 °F 14.2 °F 84% 30.09 in 10.0 mi SE 6.9 mph - N/A   Overcast
6:15 AM 18.5 °F 10.4 °F 14.0 °F 83% 30.10 in 10.0 mi ESE 5.8 mph - N/A   Overcast
6:35 AM 18.5 °F 9.3 °F 14.0 °F 83% 30.10 in 10.0 mi ESE 6.9 mph - N/A   Overcast
6:55 AM 18.5 °F 13.3 °F 14.0 °F 83% 30.11 in 10.0 mi SSE 3.5 mph - N/A   Overcast
7:15 AM 18.5 °F - 14.0 °F 83% 30.11 in 10.0 mi Calm Calm - N/A   Overcast
7:35 AM 18.5 °F 6.8 °F 14.9 °F 86% 30.08 in 1.8 mi East 10.4 mph - N/A Snow Light Snow
7:55 AM 18.3 °F 7.3 °F 15.6 °F 89% 30.08 in 3.0 mi East 9.2 mph - N/A Snow Light Snow
8:15 AM 18.3 °F 7.3 °F 15.8 °F 90% 30.08 in 2.5 mi East 9.2 mph - N/A Snow Light Snow
8:35 AM 18.5 °F 6.1 °F 15.8 °F 89% 30.07 in 7.0 mi East 11.5 mph - N/A   Overcast
8:55 AM 19.4 °F 6.0 °F 16.3 °F 88% 30.06 in 10.0 mi ESE 13.8 mph - N/A   Overcast
9:15 AM 20.1 °F 6.9 °F 16.7 °F 87% 30.05 in 7.0 mi East 13.8 mph - N/A Snow Light Snow
9:35 AM 20.8 °F 6.8 °F 17.1 °F 85% 30.05 in 10.0 mi East 16.1 mph - N/A   Overcast
9:55 AM 21.2 °F 7.8 °F 17.2 °F 85% 30.05 in 4.0 mi East 15.0 mph - N/A Snow Light Snow
10:15 AM 21.7 °F 9.0 °F 17.6 °F 84% 30.05 in 10.0 mi East 13.8 mph - N/A   Mostly Cloudy
10:35 AM 22.1 °F 11.3 °F 17.6 °F 83% 30.06 in 5.0 mi ESE 10.4 mph 16.1 mph N/A Snow Light Snow
10:55 AM 23.0 °F 12.4 °F 18.5 °F 83% 30.06 in 5.0 mi ESE 10.4 mph - N/A Snow Light Snow
11:15 AM 23.0 °F 12.4 °F 18.9 °F 84% 30.05 in 10.0 mi ESE 10.4 mph - N/A Snow Light Snow
11:35 AM 23.0 °F 13.9 °F 19.0 °F 85% 30.05 in 10.0 mi ESE 8.1 mph - N/A Snow Light Snow
11:55 AM 23.9 °F 13.5 °F 19.4 °F 83% 30.03 in 10.0 mi ESE 10.4 mph - N/A   Overcast
12:15 PM 24.8 °F 14.0 °F 19.6 °F 81% 30.01 in 10.0 mi East 11.5 mph - N/A   Overcast
12:35 PM 24.3 °F 12.2 °F 19.4 °F 82% 30.00 in 10.0 mi East 13.8 mph - N/A   Overcast
12:55 PM 24.4 °F 14.9 °F 19.6 °F 82% 29.99 in 10.0 mi East 9.2 mph - N/A   Overcast
1:15 PM 24.6 °F 14.4 °F 19.8 °F 82% 29.98 in 10.0 mi East 10.4 mph - N/A   Overcast
1:35 PM 24.8 °F 15.3 °F 19.9 °F 82% 29.97 in 10.0 mi East 9.2 mph - N/A   Overcast
1:55 PM 24.8 °F 15.3 °F 19.8 °F 81% 29.97 in 10.0 mi East 9.2 mph - N/A   Overcast
2:35 PM 25.7 °F 15.7 °F 20.1 °F 79% 29.95 in 10.0 mi East 10.4 mph - N/A   Overcast
2:55 PM 25.5 °F 14.9 °F 19.9 °F 79% 29.95 in 10.0 mi East 11.5 mph - N/A   Overcast
3:15 PM 25.7 °F 17.1 °F 19.9 °F 79% 29.96 in 10.0 mi East 8.1 mph - N/A   Overcast
3:35 PM 25.5 °F 16.9 °F 20.1 °F 80% 29.96 in 10.0 mi East 8.1 mph - N/A   Overcast
3:55 PM 25.7 °F 16.4 °F 20.3 °F 80% 29.96 in 10.0 mi East 9.2 mph - N/A   Overcast
4:15 PM 25.5 °F 16.9 °F 20.3 °F 81% 29.97 in 10.0 mi East 8.1 mph - N/A   Overcast
4:35 PM 25.5 °F 16.2 °F 20.3 °F 81% 29.96 in 7.0 mi East 9.2 mph - N/A   Overcast
4:55 PM 25.3 °F 16.7 °F 20.3 °F 81% 29.96 in 10.0 mi East 8.1 mph - N/A   Overcast
5:15 PM 25.3 °F 19.7 °F 20.7 °F 82% 29.97 in 10.0 mi ESE 4.6 mph - N/A   Overcast
5:35 PM 25.3 °F 18.5 °F 20.8 °F 83% 29.97 in 10.0 mi East 5.8 mph - N/A   Overcast
5:55 PM 25.3 °F 19.7 °F 21.0 °F 84% 29.97 in 10.0 mi East 4.6 mph - N/A   Overcast
6:15 PM 25.3 °F 18.5 °F 21.0 °F 84% 29.97 in 10.0 mi East 5.8 mph - N/A   Overcast
6:35 PM 25.3 °F 18.5 °F 21.2 °F 84% 29.98 in 10.0 mi ESE 5.8 mph - N/A   Overcast
6:55 PM 25.7 °F 20.1 °F 21.0 °F 82% 29.99 in 10.0 mi ESE 4.6 mph - N/A   Overcast
7:15 PM 25.7 °F 17.1 °F 21.0 °F 82% 29.98 in 10.0 mi East 8.1 mph - N/A   Overcast
7:35 PM 25.7 °F 19.0 °F 21.0 °F 82% 29.99 in 10.0 mi ESE 5.8 mph - N/A   Overcast
7:55 PM 25.7 °F 20.1 °F 21.2 °F 83% 29.99 in 10.0 mi ESE 4.6 mph - N/A   Overcast
8:15 PM 25.7 °F 20.1 °F 21.6 °F 84% 29.98 in 10.0 mi East 4.6 mph - N/A   Overcast
8:35 PM 25.7 °F 19.0 °F 21.6 °F 84% 29.97 in 10.0 mi East 5.8 mph - N/A   Overcast
8:55 PM 25.7 °F 20.1 °F 21.7 °F 85% 29.97 in 10.0 mi ESE 4.6 mph - N/A   Overcast
9:15 PM 25.5 °F 21.3 °F 21.7 °F 86% 29.98 in 10.0 mi East 3.5 mph - N/A   Overcast
9:35 PM 25.2 °F 20.9 °F 21.7 °F 87% 29.97 in 7.0 mi NNE 3.5 mph - N/A   Overcast
9:55 PM 24.8 °F - 21.7 °F 88% 29.98 in 7.0 mi Calm Calm - N/A   Overcast
10:15 PM 24.6 °F 20.3 °F 21.9 °F 89% 29.97 in 7.0 mi NE 3.5 mph - N/A   Overcast
10:35 PM 24.3 °F 19.9 °F 21.7 °F 90% 29.97 in 7.0 mi NNE 3.5 mph - N/A   Overcast
10:55 PM 24.3 °F - 21.7 °F 90% 29.98 in 7.0 mi Calm Calm - N/A   Overcast
11:35 PM 23.9 °F - 21.4 °F 90% 29.98 in 7.0 mi Calm Calm - N/A   Overcast
11:55 PM 23.9 °F - 21.4 °F 90% 29.98 in 7.0 mi Calm Calm - N/A   Overcast